| time (UTC) | temp C | wind direction | speed KPH | gust KPH | rain 1hr cm | rain 24hr cm | rain mn cm | humidity % | barometer mb |
| 20260510164003 | 13 | 121 | 6.4 | 8.0 | 0.03 | 0.99 | 0.99 | 83 | 1010.5 |
| 20260510163503 | 13 | 102 | 4.8 | 6.4 | 0.03 | 0.99 | 0.99 | 83 | 1010.6 |
| 20260510163003 | 13 | 100 | 6.4 | 8.0 | 0.03 | 0.99 | 0.99 | 83 | 1010.7 |
| 20260510162503 | 13 | 120 | 6.4 | 8.0 | 0.03 | 0.99 | 0.99 | 83 | 1010.8 |
| 20260510162003 | 13 | 140 | 4.8 | 6.4 | 0.03 | 0.99 | 0.99 | 83 | 1010.7 |
| 20260510161503 | 13 | 127 | 4.8 | 6.4 | 0.00 | 0.97 | 0.97 | 83 | 1010.8 |
| 20260510161024 | 13 | 83 | 6.4 | 6.4 | 0.03 | 0.97 | 0.97 | 83 | 1010.9 |
| 20260510160524 | 13 | 89 | 6.4 | 6.4 | 0.05 | 0.97 | 0.97 | 83 | 1010.8 |
| 20260510160024 | 13 | 117 | 6.4 | 6.4 | 0.05 | 0.97 | 0.97 | 82 | 1010.8 |
| 20260510155503 | 13 | 132 | 4.8 | 6.4 | 0.05 | 0.97 | 0.97 | 82 | 1010.9 |
| 20260510155003 | 13 | 137 | 1.6 | 4.8 | 0.05 | 0.97 | 0.97 | 82 | 1011.1 |
| 20260510154503 | 13 | 67 | 0.0 | 1.6 | 0.05 | 0.97 | 0.97 | 82 | 1011.1 |
| 20260510154003 | 13 | 0 | 0.0 | 0.0 | 0.05 | 0.97 | 0.97 | 82 | 1011.1 |
| 20260510153503 | 13 | 124 | 3.2 | 6.4 | 0.05 | 0.97 | 0.97 | 82 | 1011.2 |
| 20260510153024 | 13 | 123 | 3.2 | 6.4 | 0.05 | 0.97 | 0.97 | 82 | 1011.2 |
| 20260510152503 | 13 | 100 | 1.6 | 6.4 | 0.05 | 0.97 | 0.97 | 82 | 1011.2 |
| 20260510152003 | 13 | 71 | 3.2 | 4.8 | 0.05 | 0.97 | 0.97 | 82 | 1011.2 |
| 20260510151503 | 13 | 80 | 4.8 | 6.4 | 0.05 | 0.97 | 0.97 | 82 | 1011.2 |
| 20260510151003 | 13 | 113 | 6.4 | 6.4 | 0.03 | 0.94 | 0.94 | 82 | 1011.1 |
| 20260510150503 | 13 | 120 | 6.4 | 6.4 | 0.00 | 0.89 | 0.89 | 82 | 1011.2 |
| 20260510150003 | 13 | 120 | 6.4 | 6.4 | 0.00 | 0.89 | 0.89 | 82 | 1011.2 |
| 20260510145503 | 13 | 142 | 6.4 | 6.4 | 0.00 | 0.89 | 0.89 | 82 | 1011.2 |
| 20260510145003 | 13 | 161 | 4.8 | 6.4 | 0.00 | 0.89 | 0.89 | 82 | 1011.2 |
| 20260510144503 | 13 | 169 | 4.8 | 6.4 | 0.00 | 0.89 | 0.89 | 82 | 1011.5 |
| 20260510144003 | 13 | 159 | 4.8 | 6.4 | 0.00 | 0.89 | 0.89 | 82 | 1011.5 |
| 20260510143503 | 13 | 138 | 3.2 | 6.4 | 0.00 | 0.89 | 0.89 | 82 | 1011.4 |
| 20260510143003 | 13 | 142 | 3.2 | 6.4 | 0.00 | 0.89 | 0.89 | 82 | 1011.4 |
| 20260510142503 | 13 | 169 | 3.2 | 6.4 | 0.00 | 0.89 | 0.89 | 82 | 1011.4 |
| 20260510142003 | 13 | 165 | 4.8 | 6.4 | 0.00 | 0.89 | 0.89 | 82 | 1011.4 |
| 20260510141503 | 13 | 149 | 6.4 | 8.0 | 0.00 | 0.89 | 0.89 | 82 | 1011.5 |
| 20260510141003 | 13 | 170 | 4.8 | 8.0 | 0.00 | 0.89 | 0.89 | 81 | 1011.5 |
| 20260510140503 | 13 | 188 | 6.4 | 8.0 | 0.00 | 0.89 | 0.89 | 81 | 1011.4 |
| 20260510140003 | 13 | 159 | 6.4 | 8.0 | 0.00 | 0.89 | 0.89 | 81 | 1011.5 |
| 20260510135503 | 13 | 139 | 6.4 | 8.0 | 0.00 | 0.89 | 0.89 | 81 | 1011.5 |
| 20260510135003 | 13 | 155 | 6.4 | 8.0 | 0.00 | 0.89 | 0.89 | 82 | 1011.7 |
| 20260510134524 | 13 | 148 | 6.4 | 9.7 | 0.00 | 0.89 | 0.89 | 82 | 1011.7 |
| 20260510134003 | 14 | 153 | 8.0 | 12.9 | 0.00 | 0.89 | 0.89 | 82 | 1011.8 |
| 20260510133503 | 14 | 155 | 8.0 | 12.9 | 0.00 | 0.89 | 0.89 | 83 | 1011.7 |
| 20260510133003 | 14 | 120 | 8.0 | 9.7 | 0.00 | 0.89 | 0.89 | 84 | 1011.8 |
| 20260510132503 | 14 | 111 | 6.4 | 9.7 | 0.00 | 0.89 | 0.89 | 84 | 1011.7 |
| 20260510132003 | 13 | 119 | 6.4 | 8.0 | 0.00 | 0.89 | 0.89 | 84 | 1011.8 |
| 20260510131503 | 13 | 144 | 6.4 | 8.0 | 0.00 | 0.89 | 0.89 | 84 | 1012.0 |
| 20260510131003 | 13 | 181 | 6.4 | 8.0 | 0.00 | 0.89 | 0.89 | 85 | 1012.0 |
| 20260510130503 | 14 | 174 | 6.4 | 6.4 | 0.00 | 0.89 | 0.89 | 85 | 1012.1 |
| 20260510130024 | 14 | 164 | 8.0 | 11.3 | 0.00 | 0.89 | 0.89 | 85 | 1012.0 |
| 20260510125503 | 14 | 133 | 8.0 | 11.3 | 0.00 | 0.89 | 0.89 | 86 | 1012.0 |
| 20260510125003 | 14 | 111 | 8.0 | 11.3 | 0.03 | 0.89 | 0.89 | 86 | 1011.9 |
| 20260510124503 | 14 | 98 | 6.4 | 9.7 | 0.03 | 0.89 | 0.89 | 86 | 1012.1 |
| 20260510124003 | 14 | 85 | 8.0 | 9.7 | 0.05 | 0.89 | 0.89 | 87 | 1012.0 |
| 20260510123503 | 13 | 81 | 6.4 | 9.7 | 0.10 | 0.89 | 0.89 | 87 | 1012.1 |
| 20260510123003 | 13 | 91 | 3.2 | 6.4 | 0.10 | 0.89 | 0.89 | 87 | 1012.1 |
| 20260510122503 | 13 | 107 | 3.2 | 6.4 | 0.10 | 0.89 | 0.89 | 87 | 1012.2 |
| 20260510122003 | 13 | 76 | 3.2 | 6.4 | 0.10 | 0.89 | 0.89 | 87 | 1012.4 |
| 20260510121524 | 13 | 67 | 1.6 | 6.4 | 0.13 | 0.89 | 0.89 | 88 | 1012.4 |
| 20260510121003 | 13 | 67 | 0.0 | 3.2 | 0.13 | 0.89 | 0.89 | 88 | 1012.4 |
| 20260510120503 | 13 | 67 | 0.0 | 3.2 | 0.15 | 0.89 | 0.89 | 88 | 1012.4 |
| 20260510120003 | 13 | 67 | 0.0 | 1.6 | 0.15 | 0.89 | 0.89 | 88 | 1012.5 |
| 20260510115503 | 14 | 59 | 0.0 | 1.6 | 0.15 | 0.89 | 0.89 | 88 | 1012.5 |
| 20260510115003 | 14 | 4 | 0.0 | 3.2 | 0.13 | 0.86 | 0.86 | 88 | 1012.5 |
| 20260510114505 | 14 | 357 | 0.0 | 3.2 | 0.15 | 0.86 | 0.86 | 88 | 1012.5 |
| 20260510114005 | 13 | 357 | 0.0 | 3.2 | 0.13 | 0.84 | 0.84 | 88 | 1012.5 |
| 20260510113505 | 14 | 3 | 0.0 | 3.2 | 0.13 | 0.81 | 0.81 | 88 | 1012.7 |
| 20260510113005 | 14 | 1 | 1.6 | 6.4 | 0.13 | 0.81 | 0.81 | 88 | 1012.8 |
| 20260510112505 | 14 | 353 | 1.6 | 6.4 | 0.15 | 0.81 | 0.81 | 89 | 1012.7 |
| 20260510112005 | 14 | 353 | 1.6 | 3.2 | 0.18 | 0.81 | 0.81 | 89 | 1012.8 |
| 20260510111505 | 14 | 15 | 1.6 | 4.8 | 0.15 | 0.79 | 0.79 | 89 | 1012.7 |
| 20260510111005 | 14 | 357 | 1.6 | 4.8 | 0.18 | 0.79 | 0.79 | 89 | 1012.5 |
| 20260510110505 | 14 | 340 | 1.6 | 3.2 | 0.18 | 0.76 | 0.76 | 89 | 1012.7 |
| 20260510110005 | 14 | 4 | 1.6 | 3.2 | 0.18 | 0.76 | 0.76 | 89 | 1012.9 |
| 20260510105505 | 13 | 1 | 3.2 | 4.8 | 0.18 | 0.76 | 0.76 | 88 | 1012.9 |
| 20260510105026 | 13 | 356 | 3.2 | 4.8 | 0.20 | 0.76 | 0.76 | 88 | 1012.9 |
| 20260510104505 | 13 | 343 | 1.6 | 4.8 | 0.18 | 0.71 | 0.71 | 88 | 1013.0 |
| 20260510104005 | 13 | 358 | 1.6 | 4.8 | 0.18 | 0.71 | 0.71 | 88 | 1013.1 |
| 20260510103526 | 13 | 357 | 3.2 | 6.4 | 0.15 | 0.69 | 0.71 | 88 | 1012.9 |
| 20260510103005 | 13 | 1 | 1.6 | 6.4 | 0.18 | 0.69 | 0.69 | 88 | 1012.9 |
| 20260510102505 | 13 | 17 | 1.6 | 4.8 | 0.15 | 0.66 | 0.66 | 88 | 1013.0 |
| 20260510102026 | 13 | 352 | 1.6 | 3.2 | 0.13 | 0.64 | 0.64 | 88 | 1013.0 |
| 20260510101526 | 13 | 345 | 1.6 | 6.4 | 0.15 | 0.64 | 0.64 | 88 | 1012.9 |
| 20260510101005 | 13 | 339 | 1.6 | 6.4 | 0.13 | 0.61 | 0.61 | 88 | 1013.0 |
| 20260510100526 | 13 | 337 | 1.6 | 6.4 | 0.13 | 0.56 | 0.56 | 88 | 1013.0 |
| 20260510100005 | 13 | 352 | 1.6 | 3.2 | 0.13 | 0.56 | 0.56 | 88 | 1013.1 |
| 20260510095505 | 13 | 21 | 0.0 | 1.6 | 0.13 | 0.56 | 0.56 | 88 | 1013.1 |
| 20260510095005 | 13 | 360 | 0.0 | 1.6 | 0.13 | 0.53 | 0.53 | 88 | 1013.1 |
| 20260510094505 | 13 | 8 | 0.0 | 1.6 | 0.15 | 0.53 | 0.53 | 88 | 1013.2 |
| 20260510094005 | 13 | 9 | 0.0 | 3.2 | 0.18 | 0.53 | 0.53 | 87 | 1013.2 |
| 20260510093505 | 13 | 9 | 1.6 | 3.2 | 0.20 | 0.53 | 0.53 | 87 | 1013.3 |
| 20260510093005 | 13 | 9 | 0.0 | 3.2 | 0.18 | 0.51 | 0.51 | 87 | 1013.2 |
| 20260510092505 | 13 | 0 | 0.0 | 0.0 | 0.20 | 0.51 | 0.51 | 87 | 1013.2 |
| 20260510092005 | 13 | 0 | 0.0 | 0.0 | 0.23 | 0.51 | 0.51 | 87 | 1013.2 |
| 20260510091505 | 13 | 0 | 0.0 | 0.0 | 0.23 | 0.48 | 0.48 | 87 | 1013.1 |
| 20260510091005 | 13 | 0 | 0.0 | 0.0 | 0.23 | 0.48 | 0.48 | 87 | 1013.2 |
| 20260510090505 | 13 | 0 | 0.0 | 0.0 | 0.28 | 0.46 | 0.46 | 86 | 1013.2 |
| 20260510090005 | 13 | 0 | 0.0 | 0.0 | 0.28 | 0.46 | 0.46 | 86 | 1013.2 |
| 20260510085526 | 13 | 0 | 0.0 | 0.0 | 0.30 | 0.46 | 0.46 | 86 | 1013.2 |
| 20260510085005 | 13 | 0 | 0.0 | 0.0 | 0.30 | 0.43 | 0.43 | 86 | 1013.2 |
| 20260510084505 | 13 | 0 | 0.0 | 0.0 | 0.28 | 0.38 | 0.38 | 86 | 1013.2 |
| 20260510084005 | 13 | 0 | 0.0 | 0.0 | 0.28 | 0.36 | 0.36 | 86 | 1013.2 |
| 20260510083526 | 13 | 0 | 0.0 | 0.0 | 0.23 | 0.33 | 0.33 | 86 | 1013.1 |
| 20260510083005 | 13 | 0 | 0.0 | 0.0 | 0.23 | 0.33 | 0.33 | 86 | 1013.2 |
| 20260510082505 | 13 | 0 | 0.0 | 0.0 | 0.20 | 0.30 | 0.30 | 86 | 1013.2 |
| 20260510082005 | 13 | 0 | 0.0 | 0.0 | 0.18 | 0.28 | 0.28 | 86 | 1013.2 |
| 20260510081505 | 13 | 0 | 0.0 | 0.0 | 0.15 | 0.23 | 0.23 | 86 | 1013.2 |
| 20260510081005 | 13 | 0 | 0.0 | 0.0 | 0.15 | 0.23 | 0.23 | 86 | 1013.2 |
| 20260510080505 | 13 | 0 | 0.0 | 0.0 | 0.10 | 0.18 | 0.18 | 86 | 1013.2 |
| 20260510080005 | 13 | 0 | 0.0 | 0.0 | 0.10 | 0.18 | 0.18 | 86 | 1013.2 |
| 20260510075505 | 13 | 0 | 0.0 | 0.0 | 0.05 | 0.15 | 0.15 | 86 | 1013.1 |
| 20260510075005 | 13 | 0 | 0.0 | 0.0 | 0.03 | 0.13 | 0.13 | 86 | 1012.9 |
| 20260510074505 | 13 | 0 | 0.0 | 0.0 | 0.03 | 0.13 | 0.13 | 85 | 1013.0 |
| 20260510074026 | 13 | 0 | 0.0 | 0.0 | 0.00 | 0.10 | 0.10 | 85 | 1012.9 |
| 20260510073505 | 13 | 0 | 0.0 | 0.0 | 0.00 | 0.10 | 0.10 | 85 | 1012.9 |
| 20260510073005 | 12 | 345 | 1.6 | 3.2 | 0.00 | 0.10 | 0.10 | 85 | 1012.9 |
| 20260510072526 | 12 | 355 | 1.6 | 6.4 | 0.00 | 0.10 | 0.10 | 85 | 1012.7 |
| 20260510072005 | 12 | 2 | 1.6 | 6.4 | 0.00 | 0.10 | 0.10 | 85 | 1012.9 |
| 20260510071526 | 12 | 9 | 1.6 | 8.0 | 0.00 | 0.10 | 0.10 | 85 | 1012.7 |
| 20260510071005 | 12 | 3 | 4.8 | 8.0 | 0.00 | 0.10 | 0.10 | 84 | 1012.8 |
| 20260510070505 | 12 | 353 | 6.4 | 9.7 | 0.00 | 0.10 | 0.10 | 84 | 1012.5 |
| 20260510070026 | 12 | 358 | 6.4 | 9.7 | 0.00 | 0.10 | 0.10 | 84 | 1012.7 |
| 20260510065505 | 12 | 11 | 4.8 | 6.4 | 0.00 | 0.10 | 0.10 | 84 | 1012.5 |
| 20260510065005 | 12 | 359 | 3.2 | 6.4 | 0.00 | 0.10 | 0.10 | 83 | 1012.8 |
| 20260510064505 | 12 | 358 | 4.8 | 6.4 | 0.00 | 0.10 | 0.10 | 83 | 1012.7 |
| 20260510064005 | 12 | 358 | 6.4 | 11.3 | 0.00 | 0.10 | 0.10 | 83 | 1012.7 |
| 20260510063505 | 12 | 2 | 6.4 | 11.3 | 0.00 | 0.10 | 0.10 | 83 | 1012.7 |
| 20260510063026 | 12 | 10 | 6.4 | 8.0 | 0.00 | 0.10 | 0.10 | 82 | 1012.7 |
| 20260510062505 | 12 | 6 | 8.0 | 8.0 | 0.00 | 0.10 | 0.10 | 82 | 1012.5 |
| 20260510062005 | 12 | 2 | 6.4 | 8.0 | 0.00 | 0.10 | 0.10 | 82 | 1012.5 |
| 20260510061526 | 12 | 353 | 4.8 | 6.4 | 0.03 | 0.10 | 0.10 | 81 | 1012.7 |
| 20260510061005 | 13 | 349 | 3.2 | 6.4 | 0.03 | 0.10 | 0.10 | 81 | 1012.7 |
| 20260510060505 | 13 | 356 | 6.4 | 16.1 | 0.03 | 0.10 | 0.10 | 81 | 1012.5 |
| 20260510060006 | 13 | 355 | 4.8 | 16.1 | 0.03 | 0.10 | 0.10 | 81 | 1012.5 |
| 20260510055505 | 13 | 333 | 1.6 | 6.4 | 0.03 | 0.10 | 0.10 | 80 | 1012.5 |
| 20260510055005 | 13 | 286 | 4.8 | 9.7 | 0.03 | 0.10 | 0.10 | 80 | 1012.4 |
| 20260510054505 | 13 | 263 | 3.2 | 9.7 | 0.03 | 0.10 | 0.10 | 80 | 1012.2 |
| 20260510054005 | 13 | 299 | 1.6 | 3.2 | 0.03 | 0.10 | 0.10 | 80 | 1012.5 |
| 20260510053526 | 13 | 321 | 1.6 | 3.2 | 0.03 | 0.10 | 0.10 | 79 | 1012.2 |
| 20260510053026 | 13 | 316 | 1.6 | 3.2 | 0.03 | 0.10 | 0.10 | 79 | 1012.0 |
| 20260510052526 | 13 | 304 | 1.6 | 3.2 | 0.03 | 0.10 | 0.10 | 78 | 1012.0 |
| 20260510052041 | 13 | 315 | 0.0 | 1.6 | 0.03 | 0.10 | 0.10 | 78 | 1012.1 |
| 20260510051505 | 13 | 283 | 1.6 | 3.2 | 0.00 | 0.05 | 0.05 | 78 | 1011.8 |
| 20260510051005 | 13 | 267 | 0.0 | 3.2 | 0.00 | 0.05 | 0.05 | 77 | 1011.8 |
| 20260510050505 | 13 | 101 | 1.6 | 4.8 | 0.00 | 0.05 | 0.05 | 78 | 1011.9 |
| 20260510050005 | 13 | 101 | 1.6 | 4.8 | 0.00 | 0.05 | 0.05 | 78 | 1011.5 |
| 20260510045526 | 13 | 88 | 0.0 | 4.8 | 0.00 | 0.05 | 0.05 | 77 | 1011.7 |
| 20260510045005 | 13 | 58 | 1.6 | 3.2 | 0.00 | 0.05 | 0.05 | 78 | 1011.5 |
| 20260510044526 | 13 | 26 | 1.6 | 3.2 | 0.00 | 0.05 | 0.05 | 78 | 1011.5 |
| 20260510044005 | 13 | 4 | 3.2 | 6.4 | 0.00 | 0.05 | 0.05 | 78 | 1011.4 |
| 20260510043505 | 13 | 9 | 6.4 | 11.3 | 0.00 | 0.05 | 0.05 | 78 | 1011.5 |
| 20260510043005 | 13 | 16 | 9.7 | 12.9 | 0.00 | 0.05 | 0.05 | 78 | 1011.4 |
| 20260510042526 | 13 | 20 | 9.7 | 12.9 | 0.00 | 0.05 | 0.05 | 79 | 1011.6 |
| 20260510042005 | 13 | 25 | 9.7 | 12.9 | 0.00 | 0.05 | 0.05 | 79 | 1011.5 |
| 20260510041505 | 13 | 27 | 11.3 | 16.1 | 0.00 | 0.05 | 0.05 | 79 | 1011.6 |
| 20260510041026 | 13 | 49 | 11.3 | 16.1 | 0.00 | 0.05 | 0.05 | 79 | 1011.6 |
| 20260510040505 | 13 | 55 | 11.3 | 12.9 | 0.00 | 0.05 | 0.05 | 78 | 1011.6 |
| 20260510040005 | 13 | 23 | 8.0 | 12.9 | 0.00 | 0.05 | 0.05 | 78 | 1011.5 |
| 20260510035526 | 13 | 12 | 6.4 | 9.7 | 0.00 | 0.05 | 0.05 | 78 | 1011.6 |
| 20260510035005 | 13 | 9 | 6.4 | 8.0 | 0.00 | 0.05 | 0.05 | 77 | 1011.5 |
| 20260510034505 | 13 | 3 | 6.4 | 8.0 | 0.00 | 0.05 | 0.05 | 76 | 1011.7 |
| 20260510034026 | 13 | 22 | 6.4 | 8.0 | 0.00 | 0.05 | 0.05 | 76 | 1011.7 |
| 20260510033505 | 13 | 41 | 9.7 | 12.9 | 0.00 | 0.05 | 0.05 | 75 | 1011.8 |
| 20260510033005 | 13 | 45 | 11.3 | 12.9 | 0.00 | 0.05 | 0.05 | 75 | 1011.7 |
| 20260510032505 | 14 | 51 | 11.3 | 12.9 | 0.00 | 0.05 | 0.05 | 75 | 1011.8 |
| 20260510032005 | 14 | 49 | 9.7 | 11.3 | 0.00 | 0.05 | 0.05 | 75 | 1011.7 |
| 20260510031505 | 14 | 47 | 8.0 | 8.0 | 0.00 | 0.05 | 0.05 | 75 | 1011.8 |
| 20260510031005 | 14 | 47 | 4.8 | 8.0 | 0.00 | 0.05 | 0.05 | 76 | 1011.8 |
| 20260510030505 | 13 | 42 | 3.2 | 6.4 | 0.00 | 0.05 | 0.05 | 76 | 1011.9 |
| 20260510030005 | 13 | 6 | 3.2 | 6.4 | 0.00 | 0.05 | 0.05 | 76 | 1011.9 |
| 20260510025505 | 14 | 7 | 6.4 | 8.0 | 0.00 | 0.05 | 0.05 | 76 | 1012.0 |
| 20260510025005 | 13 | 12 | 6.4 | 8.0 | 0.00 | 0.05 | 0.05 | 76 | 1012.1 |
| 20260510024505 | 13 | 15 | 8.0 | 8.0 | 0.00 | 0.05 | 0.05 | 76 | 1012.0 |
| 20260510024020 | 13 | 12 | 6.4 | 8.0 | 0.00 | 0.05 | 0.05 | 76 | 1012.0 |
| 20260510023505 | 13 | 8 | 4.8 | 6.4 | 0.00 | 0.05 | 0.05 | 76 | 1012.2 |
| 20260510023005 | 13 | 10 | 6.4 | 9.7 | 0.00 | 0.05 | 0.05 | 76 | 1012.4 |
| 20260510022505 | 13 | 13 | 6.4 | 9.7 | 0.00 | 0.05 | 0.05 | 76 | 1012.4 |
| 20260510022005 | 13 | 12 | 4.8 | 6.4 | 0.00 | 0.05 | 0.05 | 76 | 1012.5 |
| 20260510021505 | 13 | 9 | 4.8 | 6.4 | 0.00 | 0.05 | 0.05 | 75 | 1012.5 |
| 20260510021005 | 13 | 4 | 4.8 | 6.4 | 0.03 | 0.05 | 0.05 | 75 | 1012.7 |
| 20260510020505 | 13 | 2 | 3.2 | 4.8 | 0.03 | 0.05 | 0.05 | 73 | 1012.7 |
| 20260510020005 | 13 | 4 | 1.6 | 4.8 | 0.03 | 0.05 | 0.05 | 73 | 1012.8 |
| 20260510015505 | 13 | 356 | 1.6 | 4.8 | 0.05 | 0.05 | 0.05 | 72 | 1012.7 |
| 20260510015026 | 13 | 355 | 0.0 | 1.6 | 0.05 | 0.05 | 0.05 | 71 | 1012.9 |
| 20260510014505 | 13 | 22 | 0.0 | 1.6 | 0.05 | 0.05 | 0.05 | 70 | 1013.0 |
| 20260510014005 | 13 | 32 | 3.2 | 11.3 | 0.05 | 0.05 | 0.05 | 70 | 1013.2 |
| 20260510013505 | 14 | 43 | 8.0 | 12.9 | 0.05 | 0.05 | 0.05 | 70 | 1012.9 |
| 20260510013005 | 14 | 60 | 9.7 | 12.9 | 0.05 | 0.05 | 0.05 | 70 | 1012.9 |
| 20260510012505 | 14 | 64 | 8.0 | 12.9 | 0.05 | 0.05 | 0.05 | 69 | 1013.1 |
| 20260510012005 | 14 | 61 | 3.2 | 9.7 | 0.05 | 0.05 | 0.05 | 67 | 1012.9 |
| 20260510011505 | 14 | 137 | 3.2 | 8.0 | 0.05 | 0.05 | 0.05 | 66 | 1013.0 |
| 20260510011005 | 15 | 195 | 8.0 | 12.9 | 0.03 | 0.03 | 0.03 | 66 | 1013.1 |
| 20260510010505 | 15 | 237 | 8.0 | 12.9 | 0.03 | 0.03 | 0.03 | 64 | 1013.2 |
| 20260510010026 | 15 | 231 | 3.2 | 8.0 | 0.03 | 0.03 | 0.03 | 64 | 1013.2 |
| 20260510005505 | 15 | 10 | 1.6 | 4.8 | 0.00 | 0.00 | 0.00 | 64 | 1013.0 |
| 20260510005026 | 15 | 14 | 3.2 | 6.4 | 0.00 | 0.00 | 0.00 | 64 | 1013.0 |
| 20260510004505 | 15 | 18 | 4.8 | 6.4 | 0.00 | 0.00 | 0.00 | 64 | 1012.9 |
| 20260510004005 | 15 | 18 | 4.8 | 6.4 | 0.00 | 0.00 | 0.00 | 63 | 1012.8 |
| 20260510003505 | 15 | 18 | 4.8 | 6.4 | 0.00 | 0.00 | 0.00 | 63 | 1012.8 |
| 20260510003005 | 15 | 21 | 3.2 | 6.4 | 0.00 | 0.00 | 0.00 | 63 | 1012.9 |
| 20260510002505 | 15 | 16 | 3.2 | 6.4 | 0.00 | 0.00 | 0.00 | 63 | 1012.9 |
| 20260510002005 | 15 | 16 | 3.2 | 6.4 | 0.00 | 0.00 | 0.00 | 63 | 1013.0 |
| 20260510001505 | 15 | 25 | 3.2 | 6.4 | 0.00 | 0.00 | 0.00 | 63 | 1013.1 |
| 20260510001026 | 15 | 26 | 3.2 | 6.4 | 0.00 | 0.00 | 0.00 | 63 | 1013.3 |
| 20260510000505 | 15 | 0 | 0.0 | 0.0 | 0.00 | 0.00 | 0.00 | 63 | 1013.2 |
| 20260510000005 | 15 | 0 | 0.0 | 0.0 | 0.00 | 0.00 | 0.00 | 63 | 1013.3 |
| 20260509235505 | 15 | 22 | 0.0 | 3.2 | 0.00 | 0.00 | 0.00 | 63 | 1013.5 |
| 20260509235026 | 15 | 22 | 1.6 | 3.2 | 0.00 | 0.00 | 0.00 | 63 | 1013.5 |
| 20260509234505 | 15 | 14 | 3.2 | 3.2 | 0.00 | 0.00 | 0.00 | 63 | 1013.4 |
| 20260509234005 | 15 | 12 | 4.8 | 6.4 | 0.00 | 0.00 | 0.00 | 63 | 1013.3 |
| 20260509233505 | 15 | 13 | 6.4 | 6.4 | 0.00 | 0.00 | 0.00 | 63 | 1013.4 |
| 20260509233005 | 15 | 10 | 6.4 | 6.4 | 0.00 | 0.00 | 0.00 | 63 | 1013.2 |
| 20260509232505 | 15 | 9 | 4.8 | 6.4 | 0.00 | 0.00 | 0.00 | 62 | 1013.4 |
| 20260509232026 | 15 | 8 | 4.8 | 6.4 | 0.00 | 0.00 | 0.00 | 62 | 1013.5 |
| 20260509231506 | 15 | 15 | 4.8 | 6.4 | 0.00 | 0.00 | 0.00 | 62 | 1013.4 |
| 20260509230504 | 15 | 9 | 4.8 | 6.4 | 0.00 | 0.00 | 0.00 | 61 | 1013.6 |
| 20260509230004 | 16 | 9 | 6.4 | 6.4 | 0.00 | 0.00 | 0.00 | 61 | 1013.4 |
| 20260509225504 | 16 | 11 | 6.4 | 6.4 | 0.00 | 0.00 | 0.00 | 60 | 1013.4 |
| 20260509225004 | 16 | 13 | 4.8 | 6.4 | 0.00 | 0.00 | 0.00 | 60 | 1013.5 |
| 20260509224504 | 16 | 17 | 3.2 | 6.4 | 0.00 | 0.00 | 0.00 | 60 | 1013.4 |
| 20260509224004 | 16 | 19 | 1.6 | 4.8 | 0.00 | 0.00 | 0.00 | 60 | 1013.5 |
| 20260509223525 | 16 | 18 | 0.0 | 3.2 | 0.00 | 0.00 | 0.00 | 60 | 1013.7 |
| 20260509223004 | 16 | 0 | 0.0 | 0.0 | 0.00 | 0.00 | 0.00 | 60 | 1013.6 |
| 20260509222504 | 16 | 7 | 0.0 | 3.2 | 0.00 | 0.00 | 0.00 | 60 | 1013.7 |
| 20260509222004 | 16 | 7 | 0.0 | 3.2 | 0.00 | 0.00 | 0.00 | 60 | 1013.6 |
| 20260509221525 | 16 | 0 | 0.0 | 0.0 | 0.00 | 0.00 | 0.00 | 60 | 1013.7 |
| 20260509221004 | 16 | 0 | 0.0 | 0.0 | 0.00 | 0.00 | 0.00 | 60 | 1013.6 |
| 20260509220525 | 16 | 0 | 0.0 | 0.0 | 0.00 | 0.00 | 0.00 | 59 | 1013.6 |
| 20260509220004 | 16 | 0 | 0.0 | 0.0 | 0.00 | 0.00 | 0.00 | 59 | 1013.5 |
| 20260509215504 | 16 | 0 | 0.0 | 0.0 | 0.00 | 0.00 | 0.00 | 58 | 1013.5 |
| 20260509215004 | 16 | 0 | 0.0 | 0.0 | 0.00 | 0.00 | 0.00 | 57 | 1013.5 |
| 20260509214525 | 16 | 0 | 0.0 | 0.0 | 0.00 | 0.00 | 0.00 | 56 | 1013.4 |
| 20260509214004 | 16 | 10 | 0.0 | 3.2 | 0.00 | 0.00 | 0.00 | 55 | 1013.5 |
| 20260509213504 | 16 | 8 | 1.6 | 3.2 | 0.00 | 0.00 | 0.00 | 54 | 1013.6 |
| 20260509213004 | 16 | 8 | 0.0 | 3.2 | 0.00 | 0.00 | 0.00 | 53 | 1013.5 |
| 20260509212504 | 17 | 0 | 0.0 | 0.0 | 0.00 | 0.00 | 0.00 | 53 | 1013.6 |
| 20260509212025 | 17 | 0 | 0.0 | 0.0 | 0.00 | 0.00 | 0.00 | 53 | 1013.3 |
| 20260509211504 | 17 | 0 | 0.0 | 0.0 | 0.00 | 0.00 | 0.00 | 52 | 1013.5 |
| 20260509211032 | 17 | 0 | 0.0 | 0.0 | 0.00 | 0.00 | 0.00 | 52 | 1013.3 |
| 20260509210504 | 17 | 0 | 0.0 | 0.0 | 0.00 | 0.00 | 0.00 | 52 | 1013.4 |
| 20260509210025 | 17 | 0 | 0.0 | 0.0 | 0.00 | 0.00 | 0.00 | 52 | 1013.6 |
| 20260509205504 | 17 | 0 | 0.0 | 0.0 | 0.00 | 0.00 | 0.00 | 52 | 1013.5 |
| 20260509205025 | 17 | 0 | 0.0 | 0.0 | 0.00 | 0.00 | 0.00 | 52 | 1013.5 |
| 20260509204525 | 17 | 0 | 0.0 | 0.0 | 0.00 | 0.00 | 0.00 | 50 | 1013.5 |
| 20260509204004 | 17 | 0 | 0.0 | 0.0 | 0.00 | 0.00 | 0.00 | 50 | 1013.5 |
| 20260509203525 | 17 | 0 | 0.0 | 0.0 | 0.00 | 0.00 | 0.00 | 50 | 1013.5 |
| 20260509203025 | 17 | 0 | 0.0 | 0.0 | 0.00 | 0.00 | 0.00 | 49 | 1013.5 |
| 20260509202504 | 17 | 0 | 0.0 | 0.0 | 0.00 | 0.00 | 0.00 | 49 | 1013.3 |
| 20260509202004 | 17 | 0 | 0.0 | 0.0 | 0.00 | 0.00 | 0.00 | 49 | 1013.5 |
| 20260509201525 | 17 | 0 | 0.0 | 0.0 | 0.00 | 0.00 | 0.00 | 49 | 1013.5 |
| 20260509201004 | 17 | 0 | 0.0 | 0.0 | 0.00 | 0.00 | 0.00 | 49 | 1013.5 |
| 20260509200525 | 17 | 0 | 0.0 | 0.0 | 0.00 | 0.00 | 0.00 | 48 | 1013.5 |
| 20260509200004 | 17 | 0 | 0.0 | 0.0 | 0.00 | 0.00 | 0.00 | 48 | 1013.4 |
| 20260509195504 | 18 | 0 | 0.0 | 0.0 | 0.00 | 0.00 | 0.00 | 47 | 1013.2 |
| 20260509195004 | 18 | 0 | 0.0 | 0.0 | 0.00 | 0.00 | 0.00 | 47 | 1013.3 |
| 20260509194504 | 18 | 0 | 0.0 | 0.0 | 0.00 | 0.00 | 0.00 | 47 | 1012.9 |
| 20260509194019 | 18 | 0 | 0.0 | 0.0 | 0.00 | 0.00 | 0.00 | 47 | 1012.9 |
| 20260509193504 | 18 | 0 | 0.0 | 0.0 | 0.00 | 0.00 | 0.00 | 46 | 1013.0 |
| 20260509193004 | 18 | 0 | 0.0 | 0.0 | 0.00 | 0.00 | 0.00 | 46 | 1012.9 |
| 20260509192504 | 18 | 0 | 0.0 | 0.0 | 0.00 | 0.00 | 0.00 | 46 | 1012.8 |
| 20260509192004 | 18 | 0 | 0.0 | 0.0 | 0.00 | 0.00 | 0.00 | 45 | 1012.9 |
| 20260509191504 | 18 | 0 | 0.0 | 0.0 | 0.00 | 0.00 | 0.00 | 45 | 1012.8 |
| 20260509191004 | 18 | 0 | 0.0 | 0.0 | 0.00 | 0.00 | 0.00 | 45 | 1012.9 |
| 20260509190504 | 18 | 0 | 0.0 | 0.0 | 0.00 | 0.00 | 0.00 | 46 | 1012.8 |
| 20260509190004 | 18 | 0 | 0.0 | 0.0 | 0.00 | 0.00 | 0.00 | 46 | 1012.9 |
| 20260509185525 | 18 | 0 | 0.0 | 0.0 | 0.00 | 0.00 | 0.00 | 45 | 1013.0 |
| 20260509185004 | 19 | 0 | 0.0 | 0.0 | 0.00 | 0.00 | 0.00 | 46 | 1013.0 |
| 20260509184504 | 19 | 0 | 0.0 | 0.0 | 0.00 | 0.00 | 0.00 | 46 | 1012.9 |
| 20260509184004 | 19 | 202 | 0.0 | 3.2 | 0.00 | 0.00 | 0.00 | 47 | 1013.0 |
| 20260509183504 | 19 | 202 | 0.0 | 3.2 | 0.00 | 0.00 | 0.00 | 47 | 1012.9 |
| 20260509183004 | 19 | 0 | 0.0 | 0.0 | 0.00 | 0.00 | 0.00 | 47 | 1012.9 |
| 20260509182504 | 20 | 0 | 0.0 | 0.0 | 0.00 | 0.00 | 0.00 | 48 | 1012.8 |
| 20260509182025 | 20 | 0 | 0.0 | 0.0 | 0.00 | 0.00 | 0.00 | 47 | 1012.9 |
| 20260509181504 | 20 | 0 | 0.0 | 0.0 | 0.00 | 0.00 | 0.00 | 45 | 1012.8 |
| 20260509181004 | 21 | 0 | 0.0 | 0.0 | 0.00 | 0.00 | 0.00 | 44 | 1012.7 |
| 20260509180525 | 21 | 0 | 0.0 | 0.0 | 0.00 | 0.00 | 0.00 | 42 | 1012.9 |
| 20260509180004 | 21 | 0 | 0.0 | 0.0 | 0.00 | 0.00 | 0.00 | 41 | 1012.8 |
| 20260509175525 | 21 | 0 | 0.0 | 0.0 | 0.00 | 0.00 | 0.00 | 41 | 1012.8 |
| 20260509175004 | 21 | 0 | 0.0 | 0.0 | 0.00 | 0.00 | 0.00 | 41 | 1012.8 |
| 20260509174504 | 21 | 0 | 0.0 | 0.0 | 0.00 | 0.00 | 0.00 | 40 | 1012.7 |
| 20260509174004 | 21 | 0 | 0.0 | 0.0 | 0.00 | 0.00 | 0.00 | 40 | 1012.7 |
| 20260509173504 | 22 | 0 | 0.0 | 0.0 | 0.00 | 0.00 | 0.00 | 40 | 1012.8 |
| 20260509173004 | 22 | 0 | 0.0 | 0.0 | 0.00 | 0.00 | 0.00 | 40 | 1012.8 |
| 20260509172504 | 22 | 275 | 0.0 | 3.2 | 0.00 | 0.00 | 0.00 | 40 | 1012.8 |
| 20260509172004 | 22 | 268 | 0.0 | 3.2 | 0.00 | 0.00 | 0.00 | 40 | 1012.9 |
| 20260509171504 | 22 | 305 | 0.0 | 3.2 | 0.00 | 0.00 | 0.00 | 36 | 1012.7 |
| 20260509171025 | 22 | 315 | 0.0 | 3.2 | 0.00 | 0.00 | 0.00 | 35 | 1012.8 |
| 20260509170504 | 23 | 315 | 0.0 | 1.6 | 0.00 | 0.00 | 0.00 | 36 | 1012.9 |
| 20260509170004 | 23 | 332 | 0.0 | 1.6 | 0.00 | 0.00 | 0.00 | 36 | 1012.7 |
| 20260509165504 | 23 | 328 | 0.0 | 1.6 | 0.00 | 0.00 | 0.00 | 35 | 1012.9 |
| 20260509165025 | 23 | 295 | 0.0 | 1.6 | 0.00 | 0.00 | 0.00 | 35 | 1012.8 |
| 20260509164504 | 23 | 298 | 0.0 | 1.6 | 0.00 | 0.00 | 0.00 | 35 | 1012.9 |